Regional Weather Roundup
Issued by NWS

Home | Current Version | Previous Version | Text Only | Print | Product List | Glossary Off
Versions: 1 2 3 4 5 6 7 8 9 10 11 12 13 14 15 16 17 18 19 20 21 22 23 24 25 26 27 28 29 30 31 32 33 34 35 36 37 38 39 40 41 42 43 44 45 46 47 48 49

000
ASUS45 KSLC 252310
RWRUT

UTAH REGIONAL WEATHER ROUNDUP
NATIONAL WEATHER SERVICE SALT LAKE CITY UT
500 PM MDT SAT APR 25 2015

UTZ001>011-023>025-260000-

NORTHERN UTAH

CITY           SKY/WX    TMP DP  RH WIND       PRES   REMARKS
BRIGHAM CITY   CLOUDY    56  32  39 NW9       29.68R
HILL AFB       CLOUDY    55  37  50 NW9       29.67S
LOGAN          CLOUDY    55  32  41 CALM      29.68S
OGDEN          CLOUDY    55  37  50 NW9       29.67R
PROVO AIRPORT  CLOUDY    48  39  71 E6        29.69R
SALT LAKE CITY CLOUDY    55  38  52 NW10      29.66S THUNDER
VERNAL         CLOUDY    54  31  41 SW16G23   29.73R
WENDOVER       CLOUDY    52  37  58 E5        29.70R
HEBER CITY     CLOUDY    52  34  50 W7        29.69S
WEST JORDAN    CLOUDY    54  36  50 SW5G17    29.67S

$$

UTZ012>022-026-027-260000-

SOUTHERN/CENTRAL UTAH

CITY           SKY/WX    TMP DP  RH WIND       PRES   REMARKS
BLANDING       PTSUNNY   58  32  37 S18G24    29.81F
BRYCE CANYON   CLOUDY    38  36  92 SE9       29.77S WCI  31
CEDAR CITY     CLOUDY    45  38  76 S24G36    29.71F
DELTA          CLOUDY    45  41  88 S8        29.72S
HANKSVILLE     CLOUDY    52  45  76 SW5G10    29.71R
MILFORD        CLOUDY    47  28  47 S20       29.70F
MOAB/CYNLANDS  PTSUNNY   53  46  77 E18       29.68F
PRICE          CLOUDY    44  39  82 E14       29.75F
ST GEORGE      CLOUDY    52  41  66 SW13      29.77S
KANAB          CLOUDY    46  39  76 SW9       29.79R

$$

REGIONAL REPORTS     COLORADO/ARIZONA

CITY           SKY/WX    TMP DP  RH WIND       PRES   REMARKS
CRAIG, CO      PTSUNNY   56  33  42 NE7       29.76F
GRAND JUNCTION CLOUDY    51  45  79 SE3       29.76R
RIFLE          CLOUDY    53  36  52 CALM      29.76F
MONTROSE       LGT RAIN  50  43  77 NW9       29.78F
CORTEZ         MOSUNNY   60  35  39 S12       29.77F
PAGE, AZ       CLOUDY    62  36  37 SW7       29.68F
GRAND CANYON   LGT RAIN  40  37  89 W13       29.83F FOG     WCI  32
KINGMAN        LGT RAIN  59  40  49 SW22G36   29.76F
FLAGSTAFF      LGT RAIN  40  39  97 S25G33    29.83F FOG     WCI  29

$$

REGIONAL REPORTS    NEVADA/IDAHO/WYOMING

CITY           SKY/WX    TMP DP  RH WIND       PRES   REMARKS
LAS VEGAS, NV  PTSUNNY   70  36  28 SW23G33   29.60F
ELY            LGT RAIN  36  34  92 CALM      29.75S
ELKO           CLOUDY    46  34  62 W7        29.74S
POCATELLO, ID  PTSUNNY   54  29  38 S21       29.71F
BURLEY         CLOUDY    49  34  56 W14G20    29.72F
EVANSTON, WY   CLOUDY    47  26  44 SW10G17   29.72S
ROCK SPRINGS   CLOUDY    51  23  33 VRB6      29.74F
KEMMERER       CLOUDY    48  21  34 CALM      29.74F

$$



USA.gov is the U.S. government's official web portal to all federal, state and local government web resources and services.